Starlink 34515

operational
NORAD ID: 64712 Int'l Des: 2025-142 Owner: SPXS Country: US Constellation: starlink
LEOCIRCULAR

关于 Starlink 34515

正在加载描述...

实时位置

正在加载3D地球...

即将过境

高度历史

Altitude vs Time

uPlot chart will show altitude changes over time

两行轨道根数

1 64712U 25142S 25340.92071713 .00005591 00000-0 50636-3 0 9991
2 64712 69.9998 187.9829 0002678 267.9012 92.1839 14.95912427 25571
Epoch: Dec 6, 2025 • Age: 19 hours

当前状态

高度 581.8 km
速度 7.57 km/s
星下点 14.83°N, 146.65°W
发射日期 Jun 28, 2025
运行时间 0.4 years
类型 internet

技术详情

分类 Payload
质量 575.00 kg
干质量 530.00 kg
总质量 575.00 kg
长度 0.30 m
直径 4.10 m
跨度 29.00 m
形状 Box + pan
制造商 SPXS
平台类型 Starlink V2MO
阶段状态 In Orbit
所有者/国家 SPXS/US

大型星座

Loading constellations...